Location: Unspecified
(0.0000°N, 0.0000°E)
Time: 08:48:43
(UTC+00:00)

Vanguard 2 Rocket - Pass Details

Date: 19 December 2018
Orbit: 556 x 3325 km, 32.9° (Epoch: 22 March)

Event Time Altitude Azimuth Distance (km) Brightness Sun altitude
Rises 00:18:16 0° 232° (SW) 6,676 11.5 -66.0°
Reaches altitude 10° 00:23:19 10° 230° (SW) 5,291 10.8 -65.7°
Enters shadow 00:25:22 15° 230° (SW) 4,706 10.5 -65.6°
Maximum altitude 00:37:29 75° 147° (SSE) 1,703 - -64.6°
Drops below altitude 10° 00:45:10 10° 62° (ENE) 3,021 - -63.8°
Sets 00:47:18 0° 60° (ENE) 3,731 - -63.6°
